Time,TemperatureF,DewpointF,PressureIn,WindDirection,WindDirectionDegrees,WindSpeedMPH,WindSpeedGustMPH,Humidity,HourlyPrecipIn,Conditions,Clouds,dailyrainin,SoftwareType,DateUTC
2013-10-04 00:31:00,66.7,51.0,29.96,NW,321,0.0,0.0,57,0.00,,---,0.00,VWS V13.01,2013-10-04 04:31:00,
2013-10-04 00:33:00,66.7,51.0,29.96,NW,321,0.0,0.0,57,0.00,,---,0.00,VWS V13.01,2013-10-04 04:33:00,
2013-10-04 00:34:00,66.7,51.0,29.96,NW,321,0.0,0.0,57,0.00,,---,0.00,VWS V13.01,2013-10-04 04:34:00,
2013-10-04 00:35:00,66.7,51.0,29.96,NW,321,0.0,0.0,57,0.00,,---,0.00,VWS V13.01,2013-10-04 04:35:00,
2013-10-04 00:37:00,66.7,51.0,29.96,NW,321,0.0,0.0,57,0.00,,---,0.00,VWS V13.01,2013-10-04 04:37:00,
2013-10-04 00:38:00,66.7,51.0,29.96,NW,321,0.0,0.0,57,0.00,,---,0.00,VWS V13.01,2013-10-04 04:38:00,
2013-10-04 00:42:00,66.7,51.0,29.96,NW,322,0.0,0.0,57,0.00,,---,0.00,VWS V13.01,2013-10-04 04:42:00,
2013-10-04 00:44:00,66.7,51.0,29.96,NW,322,0.0,0.0,57,0.00,,---,0.00,VWS V13.01,2013-10-04 04:44:00,
2013-10-04 00:46:00,67.1,51.4,29.96,NW,322,0.0,0.0,57,0.00,,---,0.00,VWS V13.01,2013-10-04 04:46:00,
2013-10-04 00:47:00,67.1,51.4,29.96,NW,322,0.0,0.0,57,0.00,,---,0.00,VWS V13.01,2013-10-04 04:47:00,
2013-10-04 00:49:00,67.1,50.9,29.96,NW,322,0.0,0.0,56,0.00,,---,0.00,VWS V13.01,2013-10-04 04:49:00,
2013-10-04 00:52:00,67.1,50.9,29.96,NW,322,0.0,0.0,56,0.00,,---,0.00,VWS V13.01,2013-10-04 04:52:00,
2013-10-04 00:55:00,67.1,50.9,29.96,NW,322,0.0,0.0,56,0.00,,---,0.00,VWS V13.01,2013-10-04 04:55:00,
2013-10-04 00:56:00,67.1,50.9,29.96,NW,322,0.0,0.0,56,0.00,,---,0.00,VWS V13.01,2013-10-04 04:56:00,
2013-10-04 00:59:00,66.9,51.2,29.96,NW,322,0.0,0.0,57,0.00,,---,0.00,VWS V13.01,2013-10-04 04:59:00,
2013-10-04 01:02:00,66.9,50.7,29.96,NW,322,0.0,0.0,56,0.00,,---,0.00,VWS V13.01,2013-10-04 05:02:00,
2013-10-04 01:04:00,66.9,50.7,29.96,NW,322,0.0,0.0,56,0.00,,---,0.00,VWS V13.01,2013-10-04 05:04:00,
2013-10-04 01:08:00,66.9,50.7,29.96,NW,322,0.0,0.0,56,0.00,,---,0.00,VWS V13.01,2013-10-04 05:08:00,
2013-10-04 01:11:00,66.9,51.2,29.96,NNE,20,0.0,0.0,57,0.00,,---,0.00,VWS V13.01,2013-10-04 05:11:00,
2013-10-04 01:13:00,66.9,51.2,29.96,NNE,19,0.0,0.0,57,0.00,,---,0.00,VWS V13.01,2013-10-04 05:13:00,
2013-10-04 01:14:00,66.7,50.6,29.96,NNE,19,0.0,0.0,56,0.00,,---,0.00,VWS V13.01,2013-10-04 05:14:00,
2013-10-04 01:15:00,66.7,50.6,29.96,NNE,19,0.0,0.0,56,0.00,,---,0.00,VWS V13.01,2013-10-04 05:15:00,
2013-10-04 01:16:00,66.7,50.6,29.96,NNE,19,0.0,0.0,56,0.00,,---,0.00,VWS V13.01,2013-10-04 05:16:00,
2013-10-04 01:18:00,66.7,50.6,29.96,NNE,19,0.0,0.0,56,0.00,,---,0.00,VWS V13.01,2013-10-04 05:18:00,
2013-10-04 01:25:00,66.7,50.6,29.96,NNE,19,0.0,0.0,56,0.00,,---,0.00,VWS V13.01,2013-10-04 05:25:00,
2013-10-04 01:27:00,66.7,50.6,29.96,NNE,20,0.0,0.0,56,0.00,,---,0.00,VWS V13.01,2013-10-04 05:27:00,
2013-10-04 01:32:00,66.7,50.1,29.96,NNE,19,0.0,0.0,55,0.00,,---,0.00,VWS V13.01,2013-10-04 05:32:00,
2013-10-04 01:37:00,66.6,49.9,29.96,NNE,19,0.0,0.0,55,0.00,,---,0.00,VWS V13.01,2013-10-04 05:37:00,
2013-10-04 01:42:00,66.6,50.4,29.96,NNE,19,0.0,0.0,56,0.00,,---,0.00,VWS V13.01,2013-10-04 05:42:00,
2013-10-04 01:47:00,66.4,50.2,29.96,NNE,19,0.0,0.0,56,0.00,,---,0.00,VWS V13.01,2013-10-04 05:47:00,
2013-10-04 01:52:00,66.4,50.2,29.96,NNE,20,0.0,0.0,56,0.00,,---,0.00,VWS V13.01,2013-10-04 05:52:00,
2013-10-04 01:57:00,66.2,50.5,29.96,NNE,19,0.0,0.0,57,0.00,,---,0.00,VWS V13.01,2013-10-04 05:57:00,
2013-10-04 02:02:00,66.0,50.4,29.96,NNE,19,0.0,0.0,57,0.00,,---,0.00,VWS V13.01,2013-10-04 06:02:00,
2013-10-04 02:07:00,66.0,50.4,29.96,NNE,19,0.0,0.0,57,0.00,,---,0.00,VWS V13.01,2013-10-04 06:07:00,
2013-10-04 02:12:00,66.0,50.4,29.96,NNE,20,0.0,0.0,57,0.00,,---,0.00,VWS V13.01,2013-10-04 06:12:00,
2013-10-04 02:17:00,66.0,50.8,29.96,NNE,20,0.0,0.0,58,0.00,,---,0.00,VWS V13.01,2013-10-04 06:17:00,
2013-10-04 02:22:00,65.8,50.7,29.96,NNE,20,0.0,0.0,58,0.00,,---,0.00,VWS V13.01,2013-10-04 06:22:00,
2013-10-04 02:27:00,65.8,50.7,29.96,NNE,19,0.0,0.0,58,0.00,,---,0.00,VWS V13.01,2013-10-04 06:27:00,
2013-10-04 02:32:00,66.0,50.4,29.96,NNE,19,0.0,0.0,57,0.00,,---,0.00,VWS V13.01,2013-10-04 06:32:00,
2013-10-04 02:37:00,66.0,50.4,29.96,NNE,19,0.0,0.0,57,0.00,,---,0.00,VWS V13.01,2013-10-04 06:37:00,
2013-10-04 02:42:00,66.0,50.4,29.96,NNE,19,0.0,0.0,57,0.00,,---,0.00,VWS V13.01,2013-10-04 06:42:00,
2013-10-04 02:47:00,66.0,50.4,29.96,NNE,19,0.0,0.0,57,0.00,,---,0.00,VWS V13.01,2013-10-04 06:47:00,
2013-10-04 02:52:00,65.8,50.2,29.96,NNE,19,0.0,0.0,57,0.00,,---,0.00,VWS V13.01,2013-10-04 06:52:00,
2013-10-04 02:57:00,65.8,49.7,29.96,NNE,19,0.0,0.0,56,0.00,,---,0.00,VWS V13.01,2013-10-04 06:57:00,
2013-10-04 03:02:00,65.8,49.2,29.96,NNE,19,0.0,0.0,55,0.00,,---,0.00,VWS V13.01,2013-10-04 07:02:00,
2013-10-04 03:07:00,65.7,48.6,29.96,NNE,19,0.0,0.0,54,0.00,,---,0.00,VWS V13.01,2013-10-04 07:07:00,
2013-10-04 03:12:00,65.7,49.1,29.96,NNE,19,0.0,0.0,55,0.00,,---,0.00,VWS V13.01,2013-10-04 07:12:00,
2013-10-04 03:17:00,65.7,49.1,29.96,NNE,19,0.0,0.0,55,0.00,,---,0.00,VWS V13.01,2013-10-04 07:17:00,
2013-10-04 03:22:00,65.5,49.4,29.96,NNE,19,0.0,0.0,56,0.00,,---,0.00,VWS V13.01,2013-10-04 07:22:00,
2013-10-04 03:27:00,65.5,49.4,29.96,NNE,19,0.0,0.0,56,0.00,,---,0.00,VWS V13.01,2013-10-04 07:27:00,
2013-10-04 03:32:00,65.3,49.2,29.96,NNE,19,0.0,0.0,56,0.00,,---,0.00,VWS V13.01,2013-10-04 07:32:00,
2013-10-04 03:37:00,65.3,49.2,29.96,NNE,19,0.0,0.0,56,0.00,,---,0.00,VWS V13.01,2013-10-04 07:37:00,
2013-10-04 03:42:00,65.1,49.5,29.96,NNE,19,0.0,0.0,57,0.00,,---,0.00,VWS V13.01,2013-10-04 07:42:00,
2013-10-04 03:47:00,64.9,49.8,29.96,NNE,19,0.0,0.0,58,0.00,,---,0.00,VWS V13.01,2013-10-04 07:47:00,
2013-10-04 03:52:00,64.8,49.7,29.96,NNE,19,0.0,0.0,58,0.00,,---,0.00,VWS V13.01,2013-10-04 07:52:00,
2013-10-04 03:57:00,64.8,49.7,29.96,NNE,19,0.0,0.0,58,0.00,,---,0.00,VWS V13.01,2013-10-04 07:57:00,
2013-10-04 04:02:00,64.6,49.5,29.96,NNE,19,0.0,0.0,58,0.00,,---,0.00,VWS V13.01,2013-10-04 08:02:00,
2013-10-04 04:07:00,64.4,49.8,29.96,NNE,19,0.0,0.0,59,0.00,,---,0.00,VWS V13.01,2013-10-04 08:07:00,
2013-10-04 04:12:00,64.4,50.2,29.96,NNE,19,0.0,0.0,60,0.00,,---,0.00,VWS V13.01,2013-10-04 08:12:00,
2013-10-04 04:17:00,64.4,50.2,29.96,NNE,20,0.0,0.0,60,0.00,,---,0.00,VWS V13.01,2013-10-04 08:17:00,
2013-10-04 04:22:00,64.2,50.5,29.96,NNE,19,0.0,0.0,61,0.00,,---,0.00,VWS V13.01,2013-10-04 08:22:00,
2013-10-04 04:27:00,64.2,50.5,29.96,NNE,19,0.0,0.0,61,0.00,,---,0.00,VWS V13.01,2013-10-04 08:27:00,
2013-10-04 04:32:00,64.0,50.8,29.96,NNE,19,0.0,0.0,62,0.00,,---,0.00,VWS V13.01,2013-10-04 08:32:00,
2013-10-04 04:37:00,64.0,50.8,29.96,NNE,19,0.0,0.0,62,0.00,,---,0.00,VWS V13.01,2013-10-04 08:37:00,
2013-10-04 04:42:00,63.9,51.0,29.96,NNE,19,0.0,0.0,63,0.00,,---,0.00,VWS V13.01,2013-10-04 08:42:00,
2013-10-04 04:47:00,63.9,51.0,29.96,NNE,19,0.0,0.0,63,0.00,,---,0.00,VWS V13.01,2013-10-04 08:47:00,
2013-10-04 04:52:00,63.9,51.0,29.96,NNE,19,0.0,0.0,63,0.00,,---,0.00,VWS V13.01,2013-10-04 08:52:00,
2013-10-04 04:57:00,63.9,51.0,29.96,NNE,19,0.0,0.0,63,0.00,,---,0.00,VWS V13.01,2013-10-04 08:57:00,
2013-10-04 05:02:00,63.9,51.0,29.96,NNE,19,0.0,0.0,63,0.00,,---,0.00,VWS V13.01,2013-10-04 09:02:00,
2013-10-04 05:07:00,63.9,51.5,29.96,NNE,19,0.0,0.0,64,0.00,,---,0.00,VWS V13.01,2013-10-04 09:07:00,
2013-10-04 05:12:00,63.7,51.3,29.96,NNE,19,0.0,0.0,64,0.00,,---,0.00,VWS V13.01,2013-10-04 09:12:00,
2013-10-04 05:17:00,63.5,52.0,29.96,NNE,19,0.0,0.0,66,0.00,,---,0.00,VWS V13.01,2013-10-04 09:17:00,
2013-10-04 05:22:00,63.5,52.4,29.96,NNE,19,0.0,0.0,67,0.00,,---,0.00,VWS V13.01,2013-10-04 09:22:00,
2013-10-04 05:27:00,63.3,52.2,29.96,NNE,19,0.0,0.0,67,0.00,,---,0.00,VWS V13.01,2013-10-04 09:27:00,
2013-10-04 05:32:00,63.1,52.0,29.96,NNE,19,0.0,0.0,67,0.00,,---,0.00,VWS V13.01,2013-10-04 09:32:00,
2013-10-04 05:37:00,63.0,51.4,29.96,NNE,19,0.0,0.0,66,0.00,,---,0.00,VWS V13.01,2013-10-04 09:37:00,
2013-10-04 05:42:00,63.0,51.4,29.96,NNE,19,0.0,0.0,66,0.00,,---,0.00,VWS V13.01,2013-10-04 09:42:00,
2013-10-04 05:47:00,63.0,51.4,29.96,NNE,19,0.0,0.0,66,0.00,,---,0.00,VWS V13.01,2013-10-04 09:47:00,
2013-10-04 05:52:00,63.0,51.4,29.96,NNE,19,0.0,0.0,66,0.00,,---,0.00,VWS V13.01,2013-10-04 09:52:00,
2013-10-04 05:57:00,63.0,51.4,29.96,NNE,19,0.0,0.0,66,0.00,,---,0.00,VWS V13.01,2013-10-04 09:57:00,
2013-10-04 06:02:00,62.8,51.3,29.96,NNE,19,0.0,0.0,66,0.00,,---,0.00,VWS V13.01,2013-10-04 10:02:00,
2013-10-04 06:07:00,62.8,51.3,29.96,NNE,19,0.0,0.0,66,0.00,,---,0.00,VWS V13.01,2013-10-04 10:07:00,
2013-10-04 06:12:00,62.8,51.3,29.96,NNE,19,0.0,0.0,66,0.00,,---,0.00,VWS V13.01,2013-10-04 10:12:00,
2013-10-04 06:17:00,62.8,51.3,29.96,NNE,19,0.0,0.0,66,0.00,,---,0.00,VWS V13.01,2013-10-04 10:17:00,
2013-10-04 06:22:00,62.8,50.8,29.96,NNE,19,0.0,0.0,65,0.00,,---,0.00,VWS V13.01,2013-10-04 10:22:00,
2013-10-04 06:27:00,62.6,50.7,29.96,NNE,19,0.0,0.0,65,0.00,,---,0.00,VWS V13.01,2013-10-04 10:27:00,
2013-10-04 06:32:00,62.6,50.7,29.96,NNE,19,0.0,0.0,65,0.00,,---,0.00,VWS V13.01,2013-10-04 10:32:00,
2013-10-04 06:37:00,62.6,50.7,29.96,NNE,19,0.0,0.0,65,0.00,,---,0.00,VWS V13.01,2013-10-04 10:37:00,
2013-10-04 06:42:00,62.2,50.8,29.96,NNE,19,0.0,0.0,66,0.00,,---,0.00,VWS V13.01,2013-10-04 10:42:00,
2013-10-04 06:47:00,62.2,50.8,29.96,NNE,19,0.0,0.0,66,0.00,,---,0.00,VWS V13.01,2013-10-04 10:47:00,
2013-10-04 06:52:00,62.1,50.6,29.96,ESE,111,0.0,0.0,66,0.00,,---,0.00,VWS V13.01,2013-10-04 10:52:00,
2013-10-04 06:57:00,61.9,50.4,29.96,ESE,111,0.0,0.0,66,0.00,,---,0.00,VWS V13.01,2013-10-04 10:57:00,
2013-10-04 07:02:00,61.9,50.4,29.96,ESE,111,0.0,0.0,66,0.00,,---,0.00,VWS V13.01,2013-10-04 11:02:00,
2013-10-04 07:07:00,61.9,50.4,29.96,ESE,111,0.0,0.0,66,0.00,,---,0.00,VWS V13.01,2013-10-04 11:07:00,
2013-10-04 07:12:00,61.7,50.2,29.96,ESE,111,0.0,0.0,66,0.00,,---,0.00,VWS V13.01,2013-10-04 11:12:00,
2013-10-04 07:17:00,61.7,50.6,29.96,ESE,111,0.0,0.0,67,0.00,,---,0.00,VWS V13.01,2013-10-04 11:17:00,
2013-10-04 07:22:00,61.7,50.6,29.96,ESE,111,0.0,0.0,67,0.00,,---,0.00,VWS V13.01,2013-10-04 11:22:00,
2013-10-04 07:27:00,61.7,51.0,29.96,ESE,111,0.0,0.0,68,0.00,,---,0.00,VWS V13.01,2013-10-04 11:27:00,
2013-10-04 07:32:00,61.5,50.9,29.96,ESE,111,0.0,0.0,68,0.00,,---,0.00,VWS V13.01,2013-10-04 11:32:00,
2013-10-04 07:37:00,61.7,51.0,29.96,ESE,111,0.0,0.0,68,0.00,,---,0.00,VWS V13.01,2013-10-04 11:37:00,
2013-10-04 07:42:00,61.5,50.9,29.96,ESE,111,0.0,0.0,68,0.00,,---,0.00,VWS V13.01,2013-10-04 11:42:00,
2013-10-04 07:47:00,61.7,51.0,29.96,ESE,111,0.0,0.0,68,0.00,,---,0.00,VWS V13.01,2013-10-04 11:47:00,
2013-10-04 07:52:00,61.7,51.0,29.96,ESE,111,0.0,0.0,68,0.00,,---,0.00,VWS V13.01,2013-10-04 11:52:00,
2013-10-04 07:57:00,61.7,51.4,29.96,ESE,111,0.0,0.0,69,0.00,,---,0.00,VWS V13.01,2013-10-04 11:57:00,
2013-10-04 08:02:00,61.7,51.4,29.96,ESE,111,0.0,0.0,69,0.00,,---,0.00,VWS V13.01,2013-10-04 12:02:00,
2013-10-04 08:07:00,61.7,51.8,29.96,ESE,111,0.0,0.0,70,0.00,,---,0.00,VWS V13.01,2013-10-04 12:07:00,
2013-10-04 08:12:00,61.7,51.8,29.96,ESE,111,0.0,0.0,70,0.00,,---,0.00,VWS V13.01,2013-10-04 12:12:00,
2013-10-04 08:17:00,61.9,52.0,29.96,ESE,111,0.0,0.0,70,0.00,,---,0.00,VWS V13.01,2013-10-04 12:17:00,
2013-10-04 08:22:00,62.1,52.2,29.96,ESE,111,0.0,0.0,70,0.00,,---,0.00,VWS V13.01,2013-10-04 12:22:00,
2013-10-04 08:27:00,62.2,52.3,29.96,ESE,111,0.0,0.0,70,0.00,,---,0.00,VWS V13.01,2013-10-04 12:27:00,
2013-10-04 08:32:00,62.4,52.5,29.96,ESE,111,0.0,0.0,70,0.00,,---,0.00,VWS V13.01,2013-10-04 12:32:00,
2013-10-04 08:37:00,62.6,52.3,29.96,ESE,111,0.0,0.0,69,0.00,,---,0.00,VWS V13.01,2013-10-04 12:37:00,
2013-10-04 08:42:00,62.8,52.5,29.96,ESE,111,0.0,0.0,69,0.00,,---,0.00,VWS V13.01,2013-10-04 12:42:00,
2013-10-04 08:47:00,63.1,52.8,29.96,ESE,111,0.0,0.0,69,0.00,,---,0.00,VWS V13.01,2013-10-04 12:47:00,
2013-10-04 08:52:00,63.5,53.5,29.96,ESE,111,0.0,0.0,70,0.00,,---,0.00,VWS V13.01,2013-10-04 12:52:00,
2013-10-04 08:57:00,63.7,53.7,29.96,ESE,111,0.0,0.0,70,0.00,,---,0.00,VWS V13.01,2013-10-04 12:57:00,
2013-10-04 09:02:00,63.9,53.9,29.96,ESE,104,0.0,0.0,70,0.00,,---,0.00,VWS V13.01,2013-10-04 13:02:00,
2013-10-04 09:07:00,64.2,54.2,29.96,ESE,104,0.0,0.0,70,0.00,,---,0.00,VWS V13.01,2013-10-04 13:07:00,
2013-10-04 09:12:00,64.4,54.0,29.96,ESE,104,0.0,0.0,69,0.00,,---,0.00,VWS V13.01,2013-10-04 13:12:00,
2013-10-04 09:17:00,64.8,54.4,29.96,ESE,104,0.0,0.0,69,0.00,,---,0.00,VWS V13.01,2013-10-04 13:17:00,
2013-10-04 09:22:00,64.9,54.1,29.96,ESE,104,0.0,0.0,68,0.00,,---,0.00,VWS V13.01,2013-10-04 13:22:00,
2013-10-04 09:27:00,65.3,54.1,29.96,ESE,104,0.0,0.0,67,0.00,,---,0.00,VWS V13.01,2013-10-04 13:27:00,
2013-10-04 09:32:00,65.7,54.4,29.96,ESE,104,0.0,0.0,67,0.00,,---,0.00,VWS V13.01,2013-10-04 13:32:00,
2013-10-04 09:37:00,66.0,54.3,29.96,ESE,104,0.0,0.0,66,0.00,,---,0.00,VWS V13.01,2013-10-04 13:37:00,
2013-10-04 09:42:00,66.6,54.4,29.96,ESE,104,0.0,0.0,65,0.00,,---,0.00,VWS V13.01,2013-10-04 13:42:00,
2013-10-04 09:47:00,66.7,54.2,29.96,ESE,103,0.0,0.0,64,0.00,,---,0.00,VWS V13.01,2013-10-04 13:47:00,
2013-10-04 09:52:00,67.3,54.7,29.96,ESE,103,0.0,0.0,64,0.00,,---,0.00,VWS V13.01,2013-10-04 13:52:00,
2013-10-04 09:57:00,67.6,54.6,29.96,ESE,103,0.0,0.0,63,0.00,,---,0.00,VWS V13.01,2013-10-04 13:57:00,
2013-10-04 10:02:00,67.8,54.8,29.96,ESE,103,0.0,0.0,63,0.00,,---,0.00,VWS V13.01,2013-10-04 14:02:00,
2013-10-04 10:07:00,68.4,54.8,29.96,ESE,103,0.0,0.0,62,0.00,,---,0.00,VWS V13.01,2013-10-04 14:07:00,
2013-10-04 10:12:00,68.5,55.0,29.96,ESE,103,0.0,0.0,62,0.00,,---,0.00,VWS V13.01,2013-10-04 14:12:00,
2013-10-04 10:17:00,69.3,53.9,29.96,ESE,108,0.0,0.0,58,0.00,,---,0.00,VWS V13.01,2013-10-04 14:17:00,
2013-10-04 10:22:00,69.6,52.8,29.96,ESE,119,0.0,0.0,55,0.00,,---,0.00,VWS V13.01,2013-10-04 14:22:00,
2013-10-04 10:27:00,70.0,52.6,29.96,ESE,119,0.0,0.0,54,0.00,,---,0.00,VWS V13.01,2013-10-04 14:27:00,
2013-10-04 10:32:00,70.3,51.4,29.96,ESE,119,0.0,0.0,51,0.00,,---,0.00,VWS V13.01,2013-10-04 14:32:00,
2013-10-04 10:37:00,70.5,50.5,29.96,ESE,102,0.0,0.0,49,0.00,,---,0.00,VWS V13.01,2013-10-04 14:37:00,
2013-10-04 10:42:00,71.1,50.4,29.96,SE,128,0.0,0.0,48,0.00,,---,0.00,VWS V13.01,2013-10-04 14:42:00,
2013-10-04 10:47:00,71.4,50.7,29.96,SE,127,0.0,0.0,48,0.00,,---,0.00,VWS V13.01,2013-10-04 14:47:00,
2013-10-04 10:52:00,72.0,50.7,29.96,ESE,112,0.0,0.0,47,0.00,,---,0.00,VWS V13.01,2013-10-04 14:52:00,
2013-10-04 10:57:00,72.3,50.4,29.96,ESE,112,0.0,0.0,46,0.00,,---,0.00,VWS V13.01,2013-10-04 14:57:00,
2013-10-04 11:02:00,72.5,50.0,29.96,ESE,112,0.0,0.0,45,0.00,,---,0.00,VWS V13.01,2013-10-04 15:02:00,
2013-10-04 11:07:00,73.0,50.5,29.96,ESE,112,0.0,0.0,45,0.00,,---,0.00,VWS V13.01,2013-10-04 15:07:00,
2013-10-04 11:12:00,73.4,50.2,29.96,NNE,23,0.0,0.0,44,0.00,,---,0.00,VWS V13.01,2013-10-04 15:12:00,
2013-10-04 11:18:00,74.1,50.8,29.96,NE,38,0.0,0.0,44,0.00,,---,0.00,VWS V13.01,2013-10-04 15:18:00,
2013-10-04 11:23:00,74.5,50.5,29.96,NE,35,0.0,0.0,43,0.00,,---,0.00,VWS V13.01,2013-10-04 15:23:00,
2013-10-04 11:28:00,75.2,50.6,29.96,SSE,159,0.0,0.0,42,0.00,,---,0.00,VWS V13.01,2013-10-04 15:28:00,
2013-10-04 11:33:00,75.7,51.0,29.96,ESE,121,0.0,0.0,42,0.00,,---,0.00,VWS V13.01,2013-10-04 15:33:00,
2013-10-04 11:38:00,75.9,50.5,29.96,ENE,60,0.0,0.0,41,0.00,,---,0.00,VWS V13.01,2013-10-04 15:38:00,
2013-10-04 11:43:00,76.3,49.5,29.96,SE,132,0.0,0.0,39,0.00,,---,0.00,VWS V13.01,2013-10-04 15:43:00,
2013-10-04 11:48:00,76.8,50.7,29.96,ESE,119,0.0,0.0,40,0.00,,---,0.00,VWS V13.01,2013-10-04 15:48:00,
2013-10-04 11:53:00,77.4,49.1,29.96,SE,134,0.0,0.0,37,0.00,,---,0.00,VWS V13.01,2013-10-04 15:53:00,
2013-10-04 11:58:00,77.5,49.2,29.96,SSW,192,0.0,0.0,37,0.00,,---,0.00,VWS V13.01,2013-10-04 15:58:00,
2013-10-04 12:03:00,77.9,47.3,29.96,SSW,208,3.1,3.1,34,0.00,,---,0.00,VWS V13.01,2013-10-04 16:03:00,
2013-10-04 12:08:00,78.4,49.3,29.96,NW,313,0.0,2.2,36,0.00,,---,0.00,VWS V13.01,2013-10-04 16:08:00,
2013-10-04 12:13:00,79.0,48.2,29.96,East,83,0.0,0.0,34,0.00,,---,0.00,VWS V13.01,2013-10-04 16:13:00,
2013-10-04 12:18:00,79.3,47.8,29.96,East,83,0.0,0.0,33,0.00,,---,0.00,VWS V13.01,2013-10-04 16:18:00,
2013-10-04 12:23:00,79.9,47.4,29.96,NNE,33,0.0,0.0,32,0.00,,---,0.00,VWS V13.01,2013-10-04 16:23:00,
2013-10-04 12:28:00,80.2,46.9,29.96,SW,233,4.0,4.0,31,0.00,,---,0.00,VWS V13.01,2013-10-04 16:28:00,
2013-10-04 12:33:00,80.4,45.3,29.96,SW,226,0.0,0.0,29,0.00,,---,0.00,VWS V13.01,2013-10-04 16:33:00,
2013-10-04 12:38:00,80.8,44.7,29.96,WSW,242,0.0,0.0,28,0.00,,---,0.00,VWS V13.01,2013-10-04 16:38:00,
2013-10-04 12:43:00,81.1,44.0,29.96,WSW,241,0.0,0.0,27,0.00,,---,0.00,VWS V13.01,2013-10-04 16:43:00,
2013-10-04 12:48:00,81.7,44.5,29.96,WSW,240,2.2,2.7,27,0.00,,---,0.00,VWS V13.01,2013-10-04 16:48:00,
2013-10-04 12:53:00,81.9,42.6,29.96,West,262,4.0,4.0,25,0.00,,---,0.00,VWS V13.01,2013-10-04 16:53:00,
2013-10-04 12:58:00,82.2,45.9,29.96,SW,221,0.0,0.0,28,0.00,,---,0.00,VWS V13.01,2013-10-04 16:58:00,
2013-10-04 13:03:00,82.4,43.1,29.96,SW,216,0.0,0.0,25,0.00,,---,0.00,VWS V13.01,2013-10-04 17:03:00,
2013-10-04 13:08:00,82.8,42.3,29.96,West,273,0.0,0.0,24,0.00,,---,0.00,VWS V13.01,2013-10-04 17:08:00,
2013-10-04 13:13:00,83.1,43.7,29.96,SE,131,0.0,0.0,25,0.00,,---,0.00,VWS V13.01,2013-10-04 17:13:00,
2013-10-04 13:18:00,82.9,43.5,29.96,SSW,212,0.0,0.0,25,0.00,,---,0.00,VWS V13.01,2013-10-04 17:18:00,
2013-10-04 13:23:00,82.9,43.5,29.96,SSE,168,0.0,0.0,25,0.00,,---,0.00,VWS V13.01,2013-10-04 17:23:00,
2013-10-04 13:28:00,82.9,43.5,29.96,ENE,60,0.0,0.0,25,0.00,,---,0.00,VWS V13.01,2013-10-04 17:28:00,
2013-10-04 13:33:00,83.1,43.7,29.96,NE,42,0.0,0.0,25,0.00,,---,0.00,VWS V13.01,2013-10-04 17:33:00,
2013-10-04 13:58:00,81.3,45.1,29.96,NNE,23,0.0,0.0,28,0.00,,---,0.00,VWS V13.01,2013-10-04 17:58:00,
2013-10-04 14:03:00,82.8,46.4,29.96,NNE,23,0.0,0.0,28,0.00,,---,0.00,VWS V13.01,2013-10-04 18:03:00,
2013-10-04 14:08:00,83.5,42.9,29.96,WSW,246,0.0,0.0,24,0.00,,---,0.00,VWS V13.01,2013-10-04 18:08:00,
2013-10-04 14:13:00,82.9,41.4,29.96,SSE,159,0.0,0.0,23,0.00,,---,0.00,VWS V13.01,2013-10-04 18:13:00,
2013-10-04 14:18:00,81.5,42.3,29.96,SSE,159,0.0,0.0,25,0.00,,---,0.00,VWS V13.01,2013-10-04 18:18:00,
2013-10-04 14:23:00,80.6,42.6,29.96,SSE,159,0.0,0.0,26,0.00,,---,0.00,VWS V13.01,2013-10-04 18:23:00,
2013-10-04 14:28:00,80.2,44.2,29.96,SSE,159,0.0,0.0,28,0.00,,---,0.00,VWS V13.01,2013-10-04 18:28:00,
2013-10-04 14:33:00,81.1,45.9,29.96,SSE,159,0.0,0.0,29,0.00,,---,0.00,VWS V13.01,2013-10-04 18:33:00,
2013-10-04 14:38:00,82.2,41.9,29.96,NNW,348,0.0,0.0,24,0.00,,---,0.00,VWS V13.01,2013-10-04 18:38:00,
2013-10-04 14:43:00,83.3,42.8,29.96,NNW,348,0.0,0.0,24,0.00,,---,0.00,VWS V13.01,2013-10-04 18:43:00,
2013-10-04 14:48:00,84.2,41.3,29.96,NNW,336,0.0,0.0,22,0.00,,---,0.00,VWS V13.01,2013-10-04 18:48:00,
2013-10-04 14:53:00,84.6,41.6,29.96,WSW,239,2.2,2.2,22,0.00,,---,0.00,VWS V13.01,2013-10-04 18:53:00,
2013-10-04 14:58:00,84.9,40.7,29.96,ESE,105,0.0,0.0,21,0.00,,---,0.00,VWS V13.01,2013-10-04 18:58:00,
2013-10-04 15:03:00,84.7,40.5,29.96,ESE,105,0.0,0.0,21,0.00,,---,0.00,VWS V13.01,2013-10-04 19:03:00,
2013-10-04 15:08:00,84.6,40.4,29.96,ESE,123,0.0,0.0,21,0.00,,---,0.00,VWS V13.01,2013-10-04 19:08:00,
2013-10-04 15:13:00,84.7,40.5,29.96,SW,234,0.0,0.0,21,0.00,,---,0.00,VWS V13.01,2013-10-04 19:13:00,
2013-10-04 15:18:00,84.9,39.4,29.96,SW,234,2.7,2.7,20,0.00,,---,0.00,VWS V13.01,2013-10-04 19:18:00,
2013-10-04 15:23:00,84.7,39.3,29.96,SW,234,0.0,0.0,20,0.00,,---,0.00,VWS V13.01,2013-10-04 19:23:00,
2013-10-04 15:28:00,84.4,39.0,29.96,SW,234,0.0,0.0,20,0.00,,---,0.00,VWS V13.01,2013-10-04 19:28:00,
2013-10-04 15:33:00,83.7,39.6,29.96,SW,234,0.0,0.0,21,0.00,,---,0.00,VWS V13.01,2013-10-04 19:33:00,
2013-10-04 15:38:00,82.9,40.2,29.96,SW,234,0.0,0.0,22,0.00,,---,0.00,VWS V13.01,2013-10-04 19:38:00,
2013-10-04 15:43:00,83.1,40.4,29.96,SW,234,0.0,0.0,22,0.00,,---,0.00,VWS V13.01,2013-10-04 19:43:00,
2013-10-04 15:48:00,83.3,40.5,29.96,SW,234,0.0,0.0,22,0.00,,---,0.00,VWS V13.01,2013-10-04 19:48:00,
2013-10-04 15:53:00,83.1,40.4,29.96,SW,234,0.0,0.0,22,0.00,,---,0.00,VWS V13.01,2013-10-04 19:53:00,
2013-10-04 15:59:00,83.3,39.3,29.96,SW,234,0.0,0.0,21,0.00,,---,0.00,VWS V13.01,2013-10-04 19:59:00,
2013-10-04 16:04:00,83.5,39.5,29.96,SW,234,0.0,0.0,21,0.00,,---,0.00,VWS V13.01,2013-10-04 20:04:00,
2013-10-04 16:09:00,83.5,39.5,29.96,SW,234,0.0,0.0,21,0.00,,---,0.00,VWS V13.01,2013-10-04 20:09:00,
2013-10-04 16:14:00,83.5,39.5,29.96,SW,234,0.0,0.0,21,0.00,,---,0.00,VWS V13.01,2013-10-04 20:14:00,
2013-10-04 16:19:00,83.3,39.3,29.96,SW,234,0.0,0.0,21,0.00,,---,0.00,VWS V13.01,2013-10-04 20:19:00,
2013-10-04 16:24:00,82.9,39.0,29.96,SW,234,0.0,0.0,21,0.00,,---,0.00,VWS V13.01,2013-10-04 20:24:00,
2013-10-04 16:29:00,82.8,40.1,29.96,SW,234,0.0,0.0,22,0.00,,---,0.00,VWS V13.01,2013-10-04 20:29:00,
2013-10-04 16:34:00,82.6,39.9,29.96,SW,234,0.0,0.0,22,0.00,,---,0.00,VWS V13.01,2013-10-04 20:34:00,
2013-10-04 16:39:00,82.4,39.8,29.96,SW,234,0.0,0.0,22,0.00,,---,0.00,VWS V13.01,2013-10-04 20:39:00,
2013-10-04 16:44:00,82.2,39.6,29.96,NNW,341,0.0,0.0,22,0.00,,---,0.00,VWS V13.01,2013-10-04 20:44:00,
2013-10-04 16:49:00,82.0,39.5,29.96,NNW,341,0.0,0.0,22,0.00,,---,0.00,VWS V13.01,2013-10-04 20:49:00,
2013-10-04 16:54:00,81.9,39.3,29.96,NNW,341,0.0,0.0,22,0.00,,---,0.00,VWS V13.01,2013-10-04 20:54:00,
2013-10-04 16:59:00,81.7,40.3,29.96,NNW,341,0.0,0.0,23,0.00,,---,0.00,VWS V13.01,2013-10-04 20:59:00,
2013-10-04 17:04:00,81.5,40.2,29.96,NNW,341,0.0,0.0,23,0.00,,---,0.00,VWS V13.01,2013-10-04 21:04:00,
2013-10-04 17:09:00,81.3,40.0,29.96,NNW,341,0.0,0.0,23,0.00,,---,0.00,VWS V13.01,2013-10-04 21:09:00,
2013-10-04 17:14:00,81.0,40.8,29.96,NNW,341,0.0,0.0,24,0.00,,---,0.00,VWS V13.01,2013-10-04 21:14:00,
2013-10-04 17:19:00,80.8,40.7,29.96,NNW,341,0.0,0.0,24,0.00,,---,0.00,VWS V13.01,2013-10-04 21:19:00,
2013-10-04 17:24:00,80.8,40.7,29.96,NNW,341,0.0,0.0,24,0.00,,---,0.00,VWS V13.01,2013-10-04 21:24:00,
2013-10-04 17:29:00,80.6,40.5,29.96,NNW,341,0.0,0.0,24,0.00,,---,0.00,VWS V13.01,2013-10-04 21:29:00,
2013-10-04 17:34:00,80.2,41.3,29.96,NNW,341,0.0,0.0,25,0.00,,---,0.00,VWS V13.01,2013-10-04 21:34:00,
2013-10-04 17:39:00,80.1,42.1,29.96,NNW,341,0.0,0.0,26,0.00,,---,0.00,VWS V13.01,2013-10-04 21:39:00,
2013-10-04 17:44:00,79.9,43.0,29.96,NNW,341,0.0,0.0,27,0.00,,---,0.00,VWS V13.01,2013-10-04 21:44:00,
2013-10-04 17:49:00,79.7,42.8,29.96,NNW,341,0.0,0.0,27,0.00,,---,0.00,VWS V13.01,2013-10-04 21:49:00,
2013-10-04 17:54:00,79.5,42.6,29.96,NNW,341,0.0,0.0,27,0.00,,---,0.00,VWS V13.01,2013-10-04 21:54:00,
2013-10-04 17:59:00,79.3,43.4,29.96,NNW,341,0.0,0.0,28,0.00,,---,0.00,VWS V13.01,2013-10-04 21:59:00,
2013-10-04 18:04:00,79.2,45.1,29.96,NNW,341,0.0,0.0,30,0.00,,---,0.00,VWS V13.01,2013-10-04 22:04:00,
2013-10-04 18:09:00,79.0,44.9,29.96,NNW,341,0.0,0.0,30,0.00,,---,0.00,VWS V13.01,2013-10-04 22:09:00,
2013-10-04 18:14:00,78.6,44.6,29.96,NNW,341,0.0,0.0,30,0.00,,---,0.00,VWS V13.01,2013-10-04 22:14:00,
2013-10-04 18:19:00,78.4,45.3,29.96,NNW,341,0.0,0.0,31,0.00,,---,0.00,VWS V13.01,2013-10-04 22:19:00,
2013-10-04 18:24:00,78.3,45.2,29.96,NNW,341,0.0,0.0,31,0.00,,---,0.00,VWS V13.01,2013-10-04 22:24:00,
2013-10-04 18:29:00,78.1,45.0,29.96,NNW,341,0.0,0.0,31,0.00,,---,0.00,VWS V13.01,2013-10-04 22:29:00,
2013-10-04 18:34:00,77.9,44.9,29.96,NNW,341,0.0,0.0,31,0.00,,---,0.00,VWS V13.01,2013-10-04 22:34:00,
2013-10-04 18:39:00,77.5,45.4,29.96,NNW,341,0.0,0.0,32,0.00,,---,0.00,VWS V13.01,2013-10-04 22:39:00,
2013-10-04 18:44:00,77.4,45.2,29.96,NNW,341,0.0,0.0,32,0.00,,---,0.00,VWS V13.01,2013-10-04 22:44:00,
2013-10-04 18:49:00,77.2,45.1,29.96,NNW,341,0.0,0.0,32,0.00,,---,0.00,VWS V13.01,2013-10-04 22:49:00,
2013-10-04 18:54:00,76.8,45.6,29.96,NNW,341,0.0,0.0,33,0.00,,---,0.00,VWS V13.01,2013-10-04 22:54:00,
2013-10-04 18:59:00,76.5,46.0,29.96,NNW,341,0.0,0.0,34,0.00,,---,0.00,VWS V13.01,2013-10-04 22:59:00,
2013-10-04 19:04:00,76.1,45.7,29.96,NNW,342,0.0,0.0,34,0.00,,---,0.00,VWS V13.01,2013-10-04 23:04:00,
2013-10-04 19:09:00,75.7,46.2,29.96,NNW,341,0.0,0.0,35,0.00,,---,0.00,VWS V13.01,2013-10-04 23:09:00,
2013-10-04 19:14:00,75.6,46.8,29.96,NNW,341,0.0,0.0,36,0.00,,---,0.00,VWS V13.01,2013-10-04 23:14:00,
2013-10-04 19:19:00,75.2,47.2,29.96,NNW,341,0.0,0.0,37,0.00,,---,0.00,VWS V13.01,2013-10-04 23:19:00,
2013-10-04 19:24:00,74.8,47.6,29.96,NNW,341,0.0,0.0,38,0.00,,---,0.00,VWS V13.01,2013-10-04 23:24:00,
2013-10-04 19:29:00,74.7,49.4,29.96,NNW,341,0.0,0.0,41,0.00,,---,0.00,VWS V13.01,2013-10-04 23:29:00,
2013-10-04 19:34:00,74.5,49.9,29.96,NNW,341,0.0,0.0,42,0.00,,---,0.00,VWS V13.01,2013-10-04 23:34:00,
2013-10-04 19:39:00,74.1,49.6,29.96,NNW,341,0.0,0.0,42,0.00,,---,0.00,VWS V13.01,2013-10-04 23:39:00,
2013-10-04 19:44:00,74.1,49.6,29.96,NNW,341,0.0,0.0,42,0.00,,---,0.00,VWS V13.01,2013-10-04 23:44:00,
2013-10-04 19:49:00,73.9,49.4,29.96,NNW,341,0.0,0.0,42,0.00,,---,0.00,VWS V13.01,2013-10-04 23:49:00,
2013-10-04 19:54:00,73.9,50.1,29.96,NNW,341,0.0,0.0,43,0.00,,---,0.00,VWS V13.01,2013-10-04 23:54:00,
2013-10-04 19:59:00,73.8,49.9,29.96,NNW,341,0.0,0.0,43,0.00,,---,0.00,VWS V13.01,2013-10-04 23:59:00,
2013-10-04 20:04:00,73.4,50.2,29.96,NNW,341,0.0,0.0,44,0.00,,---,0.00,VWS V13.01,2013-10-05 00:04:00,
2013-10-04 20:09:00,73.0,50.5,29.96,NNW,341,0.0,0.0,45,0.00,,---,0.00,VWS V13.01,2013-10-05 00:09:00,
2013-10-04 20:14:00,72.7,50.1,29.96,NNW,341,0.0,0.0,45,0.00,,---,0.00,VWS V13.01,2013-10-05 00:14:00,
2013-10-04 20:19:00,72.7,50.7,29.96,NNW,341,0.0,0.0,46,0.00,,---,0.00,VWS V13.01,2013-10-05 00:19:00,
2013-10-04 20:24:00,72.5,50.6,29.96,NNW,341,0.0,0.0,46,0.00,,---,0.00,VWS V13.01,2013-10-05 00:24:00,
2013-10-04 20:29:00,72.3,49.8,29.96,NNW,341,0.0,0.0,45,0.00,,---,0.00,VWS V13.01,2013-10-05 00:29:00,
2013-10-04 20:34:00,72.3,50.4,29.96,NNW,341,0.0,0.0,46,0.00,,---,0.00,VWS V13.01,2013-10-05 00:34:00,
2013-10-04 20:39:00,72.1,50.2,29.96,NNW,341,0.0,0.0,46,0.00,,---,0.00,VWS V13.01,2013-10-05 00:39:00,
2013-10-04 20:44:00,72.0,50.1,29.96,NNW,341,0.0,0.0,46,0.00,,---,0.00,VWS V13.01,2013-10-05 00:44:00,
2013-10-04 20:49:00,71.8,51.1,29.96,NNW,341,0.0,0.0,48,0.00,,---,0.00,VWS V13.01,2013-10-05 00:49:00,
2013-10-04 20:54:00,71.6,50.9,29.96,NNW,341,0.0,0.0,48,0.00,,---,0.00,VWS V13.01,2013-10-05 00:54:00,
2013-10-04 20:59:00,71.4,50.7,29.96,NNW,341,0.0,0.0,48,0.00,,---,0.00,VWS V13.01,2013-10-05 00:59:00,
2013-10-04 21:04:00,71.2,50.6,29.96,NNW,341,0.0,0.0,48,0.00,,---,0.00,VWS V13.01,2013-10-05 01:04:00,
2013-10-04 21:09:00,71.2,50.6,29.96,NNW,341,0.0,0.0,48,0.00,,---,0.00,VWS V13.01,2013-10-05 01:09:00,
2013-10-04 21:14:00,71.2,50.6,29.96,NNW,341,0.0,0.0,48,0.00,,---,0.00,VWS V13.01,2013-10-05 01:14:00,
2013-10-04 21:19:00,71.1,50.4,29.96,NNW,341,0.0,0.0,48,0.00,,---,0.00,VWS V13.01,2013-10-05 01:19:00,
2013-10-04 21:24:00,70.9,50.8,29.96,NNW,341,0.0,0.0,49,0.00,,---,0.00,VWS V13.01,2013-10-05 01:24:00,
2013-10-04 21:29:00,70.7,50.6,29.96,NNW,341,0.0,0.0,49,0.00,,---,0.00,VWS V13.01,2013-10-05 01:29:00,
2013-10-04 21:34:00,70.5,51.0,29.96,NNW,341,0.0,0.0,50,0.00,,---,0.00,VWS V13.01,2013-10-05 01:34:00,
2013-10-04 21:39:00,70.5,51.0,29.96,NNW,341,0.0,0.0,50,0.00,,---,0.00,VWS V13.01,2013-10-05 01:39:00,
2013-10-04 21:44:00,70.5,51.0,29.96,NNW,341,0.0,0.0,50,0.00,,---,0.00,VWS V13.01,2013-10-05 01:44:00,
2013-10-04 21:49:00,70.5,51.0,29.96,NNW,341,0.0,0.0,50,0.00,,---,0.00,VWS V13.01,2013-10-05 01:49:00,
2013-10-04 21:54:00,70.5,49.9,29.96,NNW,341,0.0,0.0,48,0.00,,---,0.00,VWS V13.01,2013-10-05 01:54:00,
2013-10-04 21:59:00,70.7,50.1,29.96,NNW,341,0.0,0.0,48,0.00,,---,0.00,VWS V13.01,2013-10-05 01:59:00,
2013-10-04 22:04:00,70.5,49.9,29.96,NNW,341,0.0,0.0,48,0.00,,---,0.00,VWS V13.01,2013-10-05 02:04:00,
2013-10-04 22:09:00,70.3,50.3,29.96,NNW,341,0.0,0.0,49,0.00,,---,0.00,VWS V13.01,2013-10-05 02:09:00,
2013-10-04 22:14:00,70.3,50.3,29.96,NNW,341,0.0,0.0,49,0.00,,---,0.00,VWS V13.01,2013-10-05 02:14:00,
2013-10-04 22:19:00,70.2,50.1,29.96,NNW,341,0.0,0.0,49,0.00,,---,0.00,VWS V13.01,2013-10-05 02:19:00,
2013-10-04 22:24:00,70.2,50.7,29.96,NNW,341,0.0,0.0,50,0.00,,---,0.00,VWS V13.01,2013-10-05 02:24:00,
2013-10-04 22:29:00,70.0,50.5,29.96,NNW,341,0.0,0.0,50,0.00,,---,0.00,VWS V13.01,2013-10-05 02:29:00,
2013-10-04 22:34:00,70.0,50.5,29.96,NNW,341,0.0,0.0,50,0.00,,---,0.00,VWS V13.01,2013-10-05 02:34:00,
2013-10-04 22:39:00,69.8,50.3,29.96,NNW,341,0.0,0.0,50,0.00,,---,0.00,VWS V13.01,2013-10-05 02:39:00,
2013-10-04 22:44:00,69.6,51.2,29.96,NNW,341,0.0,0.0,52,0.00,,---,0.00,VWS V13.01,2013-10-05 02:44:00,
2013-10-04 22:49:00,69.4,51.1,29.96,NNW,341,0.0,0.0,52,0.00,,---,0.00,VWS V13.01,2013-10-05 02:49:00,
2013-10-04 22:54:00,69.4,51.1,29.96,NNW,341,0.0,0.0,52,0.00,,---,0.00,VWS V13.01,2013-10-05 02:54:00,
2013-10-04 22:59:00,69.4,51.1,29.96,NNW,342,0.0,0.0,52,0.00,,---,0.00,VWS V13.01,2013-10-05 02:59:00,
2013-10-04 23:04:00,69.3,50.9,29.96,NNW,341,0.0,0.0,52,0.00,,---,0.00,VWS V13.01,2013-10-05 03:04:00,
2013-10-04 23:09:00,69.3,50.9,29.96,NNW,341,0.0,0.0,52,0.00,,---,0.00,VWS V13.01,2013-10-05 03:09:00,
2013-10-04 23:14:00,69.4,50.5,29.96,NNW,341,0.0,0.0,51,0.00,,---,0.00,VWS V13.01,2013-10-05 03:14:00,
2013-10-04 23:19:00,69.6,50.7,29.96,NNW,341,0.0,0.0,51,0.00,,---,0.00,VWS V13.01,2013-10-05 03:19:00,
2013-10-04 23:24:00,69.8,50.3,29.96,NNW,341,0.0,0.0,50,0.00,,---,0.00,VWS V13.01,2013-10-05 03:24:00,
2013-10-04 23:29:00,69.6,50.7,29.96,NNW,341,0.0,0.0,51,0.00,,---,0.00,VWS V13.01,2013-10-05 03:29:00,
2013-10-04 23:34:00,69.4,50.5,29.96,NNW,341,0.0,0.0,51,0.00,,---,0.00,VWS V13.01,2013-10-05 03:34:00,
2013-10-04 23:39:00,69.3,50.4,29.96,NNW,341,0.0,0.0,51,0.00,,---,0.00,VWS V13.01,2013-10-05 03:39:00,
2013-10-04 23:44:00,69.1,50.7,29.96,NNW,341,0.0,0.0,52,0.00,,---,0.00,VWS V13.01,2013-10-05 03:44:00,
2013-10-04 23:49:00,68.9,50.6,29.96,NNW,341,0.0,0.0,52,0.00,,---,0.00,VWS V13.01,2013-10-05 03:49:00,
2013-10-04 23:54:00,68.7,50.4,29.96,NNW,341,0.0,0.0,52,0.00,,---,0.00,VWS V13.01,2013-10-05 03:54:00,
2013-10-04 23:59:00,68.7,50.9,29.96,NNW,341,0.0,0.0,53,0.00,,---,0.00,VWS V13.01,2013-10-05 03:59:00,